Weather History for Big Rapids, MI

Change the Weather History Date:

Friday, April 19, 2013

  Actual Average Record
Temperature  
Mean Temperature 46 °F -  
Max Temperature 59 °F 59 °F 80 °F (1985)
Min Temperature 32 °F 35 °F 18 °F (1983)
Degree Days  
Heating Degree Days 20    
Moisture  
Dew Point 30 °F    
Average Humidity 71    
Maximum Humidity 91    
Minimum Humidity 56    
Precipitation  
Precipitation 0.00 in - - ()
Sea Level Pressure  
Sea Level Pressure 29.44 in    
Wind  
Wind Speed 16 mph (SW)    
Max Wind Speed 25 mph    
Max Gust Speed 40 mph    
Visibility 9 miles    
Events Rain , Snow    
Averages and records for this station are not official NWS values.
T = Trace of Precipitation, MM = Missing Value Source: NWS Daily Summary

Daily Weather History Graph

Daily Weather History Graph

Search for Another Location

Airport:

Trip Planner

Search our weather history database for the weather conditions in past years. The results will help you decide how hot, cold, wet, or windy it might be!

Date:

Astronomy

Apr. 19, 2013 Rise Set
Actual Time 6:52 AM EDT 8:30 PM EDT
Civil Twilight 6:21 AM EDT 9:01 PM EDT
Nautical Twilight 5:45 AM EDT 9:37 PM EDT
Astronomical Twilight 5:05 AM EDT 10:17 PM EDT
Moon 2:02 PM EDT (4/19) 3:19 AM EDT (4/19)
Length of Visible Light 14h 39m
Length of Day
13h 38m
First Quarter, 61% of the Moon is Illuminated
Apr 19
First Quarter
Apr 25
Full
May 2
Last Quarter
May 9
New
May 18
First Quarter

Hourly Weather History & Observations

Time (EDT) Temp. Windchill Dew Point Humidity Pressure Visibility Wind Dir Wind Speed Gust Speed Precip Events Conditions
12:15 AM 59.0 °F - 56.5 °F 91% 29.38 in 7.0 mi South 16.1 mph 21.9 mph N/A   Overcast
12:35 AM 59.0 °F - 56.5 °F 91% 29.37 in 10.0 mi South 15.0 mph 24.2 mph N/A   Drizzle
12:54 AM 58.3 °F - 55.6 °F 91% 29.39 in 4.0 mi SSW 20.7 mph 38.0 mph N/A Rain Rain
1:15 AM 53.8 °F - 50.2 °F 88% 29.40 in 5.0 mi SW 19.6 mph 28.8 mph N/A Rain Light Rain
1:35 AM 49.3 °F - 46.4 °F 90% 29.41 in 10.0 mi SSW 16.1 mph 25.3 mph N/A   Overcast
1:54 AM 47.5 °F - 44.8 °F 90% 29.41 in 4.0 mi SSW 15.0 mph 25.3 mph N/A Rain Light Rain
2:15 AM 45.7 °F 38.6 °F 43.2 °F 91% 29.40 in 5.0 mi SSW 17.3 mph 25.3 mph N/A Rain Heavy Rain
2:35 AM 44.8 °F 38.3 °F 42.3 °F 91% 29.41 in 7.0 mi SSW 13.8 mph 19.6 mph N/A Rain Light Rain
2:55 AM 43.9 °F 37.9 °F 41.2 °F 90% 29.41 in 10.0 mi SW 11.5 mph 25.3 mph N/A   Overcast
3:15 AM 42.3 °F 33.8 °F 38.7 °F 87% 29.41 in 10.0 mi SW 18.4 mph 29.9 mph N/A   Overcast
3:35 AM 41.5 °F 35.0 °F 38.1 °F 88% 29.39 in 5.0 mi SSW 11.5 mph 20.7 mph N/A Rain Light Rain
3:55 AM 41.4 °F 35.2 °F 37.6 °F 86% 29.37 in 10.0 mi SSW 10.4 mph 21.9 mph N/A   Overcast
4:15 AM 41.2 °F 35.5 °F 37.0 °F 85% 29.37 in 10.0 mi SSW 9.2 mph 20.7 mph N/A   Overcast
4:35 AM 41.0 °F 33.9 °F 36.3 °F 83% 29.37 in 10.0 mi SW 12.7 mph 18.4 mph N/A   Overcast
4:55 AM 40.1 °F 34.1 °F 35.4 °F 83% 29.36 in 10.0 mi SW 9.2 mph 18.4 mph N/A   Overcast
5:15 AM 39.9 °F 33.4 °F 34.9 °F 82% 29.36 in 10.0 mi SW 10.4 mph 18.4 mph N/A   Overcast
5:35 AM 39.6 °F 31.0 °F 34.2 °F 81% 29.35 in 10.0 mi SW 16.1 mph 27.6 mph N/A   Overcast
5:55 AM 39.4 °F 32.7 °F 33.8 °F 80% 29.35 in 10.0 mi SW 10.4 mph 21.9 mph N/A   Overcast
6:15 AM 38.7 °F 31.8 °F 34.0 °F 83% 29.36 in 10.0 mi SW 10.4 mph 21.9 mph N/A   Overcast
6:55 AM 37.4 °F 27.8 °F 32.4 °F 82% 29.35 in 10.0 mi SW 17.3 mph 24.2 mph N/A   Overcast
7:15 AM 37.4 °F 28.5 °F 32.0 °F 81% 29.36 in 10.0 mi SW 15.0 mph 27.6 mph N/A   Overcast
7:35 AM 37.4 °F 26.9 °F 30.6 °F 76% 29.36 in 10.0 mi SSW 20.7 mph 32.2 mph N/A   Overcast
7:55 AM 37.4 °F 28.9 °F 27.9 °F 68% 29.35 in 10.0 mi SSW 13.8 mph 24.2 mph N/A   Overcast
8:15 AM 37.4 °F 29.3 °F 28.0 °F 69% 29.35 in 10.0 mi SW 12.7 mph 25.3 mph N/A   Overcast
8:35 AM 37.6 °F 28.4 °F 27.3 °F 66% 29.34 in 10.0 mi SW 16.1 mph 27.6 mph N/A   Overcast
8:55 AM 37.8 °F 26.3 °F 27.0 °F 65% 29.34 in 10.0 mi SSW 25.3 mph 33.4 mph N/A   Overcast
9:15 AM 37.6 °F 27.7 °F 26.4 °F 64% 29.34 in 10.0 mi SW 18.4 mph 29.9 mph N/A   Overcast
9:34 AM 37.6 °F 29.1 °F 26.4 °F 64% 29.34 in 10.0 mi SW 13.8 mph 28.8 mph N/A   Overcast
9:55 AM 37.4 °F 28.2 °F 26.6 °F 65% 29.34 in 10.0 mi SW 16.1 mph 35.7 mph N/A   Overcast
10:15 AM 37.6 °F 27.1 °F 26.1 °F 63% 29.34 in 10.0 mi SW 20.7 mph 28.8 mph N/A   Overcast
10:55 AM 37.6 °F 26.3 °F 25.7 °F 62% 29.34 in 10.0 mi SW 24.2 mph 33.4 mph N/A   Overcast
11:15 AM 37.8 °F 26.8 °F 25.9 °F 62% 29.35 in 10.0 mi SW 23.0 mph 28.8 mph N/A   Overcast
11:35 AM 37.9 °F 27.9 °F 25.7 °F 61% 29.36 in 10.0 mi SW 19.6 mph 33.4 mph N/A   Overcast
11:55 AM 38.3 °F 28.4 °F 25.3 °F 60% 29.36 in 10.0 mi SW 19.6 mph 32.2 mph N/A   Overcast
12:15 PM 39.2 °F 30.8 °F 25.3 °F 58% 29.36 in 10.0 mi SW 15.0 mph 29.9 mph N/A   Overcast
12:35 PM 38.3 °F 28.1 °F 25.9 °F 61% 29.36 in 10.0 mi SSW 20.7 mph 29.9 mph N/A   Overcast
12:55 PM 38.3 °F 28.7 °F 27.7 °F 66% 29.37 in 4.0 mi SW 18.4 mph 31.1 mph N/A   Unknown
1:14 PM 37.4 °F 27.2 °F 28.8 °F 71% 29.37 in 3.0 mi SW 19.6 mph 33.4 mph N/A Snow Light Snow
1:35 PM 39.6 °F 29.7 °F 28.6 °F 65% 29.37 in 10.0 mi SW 20.7 mph 29.9 mph N/A   Overcast
1:55 PM 39.0 °F 29.3 °F 27.3 °F 63% 29.37 in 7.0 mi WSW 19.6 mph 27.6 mph N/A   Unknown
2:14 PM 40.3 °F 31.3 °F 25.5 °F 56% 29.37 in 10.0 mi SW 18.4 mph 32.2 mph N/A   Overcast
2:35 PM 37.9 °F 29.2 °F 28.6 °F 69% 29.38 in 5.0 mi SW 15.0 mph 34.5 mph N/A Snow Light Snow
2:55 PM 36.9 °F 29.6 °F 29.3 °F 74% 29.40 in 2.0 mi SW 10.4 mph 26.5 mph N/A Snow Light Snow
3:15 PM 39.7 °F 29.0 °F 28.0 °F 63% 29.41 in 10.0 mi SW 25.3 mph 35.7 mph N/A   Overcast
3:35 PM 38.8 °F 29.1 °F 28.2 °F 66% 29.42 in 7.0 mi WSW 19.6 mph 35.7 mph N/A   Unknown
3:55 PM 38.5 °F 29.6 °F 27.5 °F 65% 29.42 in 7.0 mi SW 16.1 mph 27.6 mph N/A   Unknown
4:15 PM 39.0 °F 30.3 °F 26.6 °F 61% 29.44 in 10.0 mi WSW 16.1 mph 26.5 mph N/A   Overcast
4:35 PM 39.0 °F 29.0 °F 25.9 °F 59% 29.45 in 10.0 mi WSW 20.7 mph 29.9 mph N/A   Overcast
4:54 PM 38.3 °F 27.8 °F 25.9 °F 61% 29.46 in 10.0 mi WSW 21.9 mph 32.2 mph N/A   Unknown
5:15 PM 36.1 °F 25.0 °F 28.2 °F 73% 29.49 in 0.2 mi WSW 21.9 mph 40.3 mph N/A Snow Light Snow
5:35 PM 36.5 °F 27.8 °F 26.6 °F 67% 29.49 in 10.0 mi WSW 13.8 mph 23.0 mph N/A   Overcast
5:54 PM 37.8 °F 29.4 °F 26.1 °F 63% 29.51 in 10.0 mi WSW 13.8 mph 23.0 mph N/A   Overcast
6:15 PM 37.9 °F 27.6 °F 23.9 °F 57% 29.52 in 10.0 mi WSW 20.7 mph 29.9 mph N/A   Overcast
6:35 PM 37.6 °F 29.1 °F 23.9 °F 58% 29.54 in 10.0 mi West 13.8 mph 23.0 mph N/A Snow Light Snow
6:54 PM 37.2 °F 27.6 °F 24.1 °F 59% 29.54 in 10.0 mi West 17.3 mph 27.6 mph N/A Snow Light Snow
7:15 PM 36.3 °F 26.1 °F 25.2 °F 64% 29.55 in 10.0 mi West 18.4 mph 24.2 mph N/A   Overcast
7:35 PM 36.7 °F 27.2 °F 23.4 °F 59% 29.56 in 10.0 mi WSW 16.1 mph 28.8 mph N/A   Overcast
7:54 PM 36.5 °F 28.7 °F 22.8 °F 58% 29.58 in 10.0 mi West 11.5 mph 25.3 mph N/A   Overcast
8:15 PM 36.5 °F 28.2 °F 23.7 °F 60% 29.59 in 10.0 mi West 12.7 mph 21.9 mph N/A   Overcast
8:35 PM 35.8 °F 28.3 °F 23.0 °F 60% 29.60 in 10.0 mi West 10.4 mph 24.2 mph N/A   Overcast
8:54 PM 35.6 °F 27.1 °F 23.0 °F 60% 29.61 in 10.0 mi West 12.7 mph 20.7 mph N/A   Overcast
9:15 PM 35.6 °F 28.0 °F 23.0 °F 60% 29.62 in 10.0 mi WSW 10.4 mph 20.7 mph N/A   Overcast
9:35 PM 35.4 °F 26.4 °F 23.2 °F 61% 29.63 in 10.0 mi West 13.8 mph 20.7 mph N/A   Overcast
9:54 PM 33.6 °F 26.2 °F 23.9 °F 68% 29.65 in 10.0 mi WSW 9.2 mph - N/A   Overcast
10:15 PM 33.3 °F 26.4 °F 25.7 °F 74% 29.66 in 10.0 mi West 8.1 mph - N/A   Overcast
10:35 PM 33.4 °F 24.8 °F 25.5 °F 73% 29.67 in 10.0 mi NW 11.5 mph - N/A   Overcast
10:55 PM 32.9 °F 23.7 °F 24.8 °F 72% 29.68 in 7.0 mi West 12.7 mph - N/A Snow Light Snow
11:15 PM 32.9 °F 24.7 °F 23.4 °F 68% 29.69 in 10.0 mi West 10.4 mph - N/A   Overcast
11:35 PM 33.1 °F 22.6 °F 21.9 °F 64% 29.69 in 10.0 mi West 16.1 mph 20.7 mph N/A   Overcast
11:55 PM 32.5 °F 20.2 °F 20.5 °F 61% 29.70 in 7.0 mi WNW 21.9 mph 26.5 mph N/A Snow Light Snow